Scholes International At Galveston Airport Galveston US
ICAO: KGLS
IATA: GLS
Category: Medium
Scheduled Services: No

Elevation: 6 ft
TransAlt. 18000 ft.

Airport Communications:
HOUSTON APP/DEP:134.45
ASOS:119.275
CLNC DEL:135.35
CTAF:120.575
GND:118.625
MONTGOMERY CO RDO:122.15
TWR:120.575
UNICOM:123.05

KGLS Zoom In..

If you have problems with the map follow the link
https://www.worldairports.se/pages/airport.php?
ICAO=KGLS

Runways:

(A) RW 14 length 6000 ft width 150 ft
ILS 111.70 / hdg 138

(B) RW 18 length 6001 ft width 150 ft
---- / hdg 179

(C) RW 32 length 6000 ft width 150 ft
---- / hdg 318

(D) RW 36 length 6001 ft width 150 ft
---- / hdg 359

Location; KGLS
Day. 17 / Time. 01.52 Zulu
* Altimeter: 30.18
* Temperature: 15° c. 59°f.
* Wind from: 140° Speed 07 kn.
Dewpoint: 10° c.
Visibility: 10 Statute Miles.
Clouds: Clear (automated report).

KGLS 170152Z AUTO 14007KT 10SM CLR 15/10 A3018 RMK AO2 SLP219 T01500100


Wind From 140°
Speed 07 kn.

 
 
jpsmedia.com for Web Design worldairports.se 2018   terms of use